User: anonymous
Location: Huntington Beach
(33.6600°N, 117.9980°W)
Time: 00:40:42
(UTC-07:00)
Language:

SL-16 R/B - Orbit

View from above orbital plane
View from above orbital plane
View from above satellite
View from above satellite

Ground track
Ground track

The orbit data is extracted from the following two-line orbital elements,

1 28353U 04021B   14112.18666672  .00000386  00000-0  22801-3 0  7338
2 28353 071.0015 334.1952 0004308 169.0748 329.9996 14.14066243509309
Epoch (UTC): 22 April 2014 04:28:48
Eccentricity: 0.0004308
inclination: 71.0015°
perigee height: 842 km
apogee height: 848 km
right ascension of ascending node: 334.1952°
argument of perigee: 169.0748°
revolutions per day: 14.14066243
mean anomaly at epoch: 329.9996°
orbit number at epoch: 50930

The dashed part of the orbit path shows where the satellite is in the earth's shadow,  

DLR